Notices

What's New in latest Release from April 7th, 2021:

- Updated Glossary, including Speed of Maximum Gust, and Total Hourly Precipitation

- Updated national and regional climate services offices contacts and prices information

- Addition of station inventory lists for 1981-2010, 1971-2000, and 1961-1990 Normals.

If you haven't already, please take our survey and provide feedback about our website: https://eccc.sondage-survey.ca/f/LanguageSelection.aspx?s=442ca660-fcf1-47c0-95a9-59707d6fd709

Hourly Data Report for April 14, 2017

KUGAARUK CLIMATE
NUNAVUT

68°32'15.060" N
89°47'47.020" W
15.80 m
2303094
71407
NBB

Download Data

Hourly Data (April 2017)
Hourly Data Report for April 14, 2017
TIME
LST
Temp Definition
°C
Dew Point Definition
°C
Rel Hum Definition
%
Precip. Amount Definition
mm

Wind Dir Definition
10's deg

Wind Spd Definition
km/h
Visibility Definition
km
Stn Press Definition
kPa
Hmdx Definition


Wind Chill Definition


Weather Definition


00:00 -22.3 -25.1 78 0.0 25 18   102.15   -33 LegendNANA
01:00 -21.3 -23.9 79 0.0 25 14   102.20   -30 LegendNANA
02:00 -22.6 -25.2 79 0.0 35 10   102.28   -30 LegendNANA
03:00 -25.0 -27.8 77 0.0 3 16   102.37   -36 LegendNANA
04:00 -23.4 -26.1 78 0.0 21 3   102.49   -26 LegendNANA
05:00 -23.8 -26.8 76 0.0 35 3   102.52   -27 LegendNANA
06:00 -22.7 -25.8 75 0.0 24 14   102.55   -32 LegendNANA
07:00 -21.4 -25.1 72 0.0 24 17   102.58   -31 LegendNANA
08:00 -20.8 -24.9 69 0.0 24 16   102.61   -30 LegendNANA
09:00 -19.8 -24.0 69 0.0 26 15   102.61   -29 LegendNANA
10:00 -18.9 -22.8 71 0.0 25 20   102.61   -29 LegendNANA
11:00 -17.4 -21.6 70 0.0 25 22   102.62   -28 LegendNANA
12:00 -15.9 -19.8 71 0.0 25 24   102.63   -26 LegendNANA
13:00 -14.6 -18.9 70 0.0 26 24   102.63   -24 LegendNANA
14:00 -14.4 -18.5 71 0.0 27 29   102.66   -25 LegendNANA
15:00 -16.3 -20.2 72 0.0 27 27   102.71   -27 LegendNANA
16:00 -16.3 -20.2 72 0.0 26 25   102.68   -27 LegendNANA
17:00 -17.4 -20.3 78 0.0 27 36   102.69   -30 LegendNANA
18:00 -18.7 -21.2 80 0.0 25 35   102.69   -32 LegendNANA
19:00 -18.7 -20.9 83 0.0 25 37   102.66   -32 LegendNANA
20:00 -18.5 -20.6 84 0.0 25 30   102.69   -31 LegendNANA
21:00 -18.7 -20.8 83 0.0 26 25   102.68   -30 LegendNANA
22:00 -18.5 -20.6 84 0.2 27 21   102.69   -29 LegendNANA
23:00 -18.8 -20.9 83 0.0 27 16   102.68   -28 LegendNANA

Notes on Data Quality.

Legend

  • E = Estimated
  • M = Missing
  • NA = Not Available*
  • [empty] = Indicates an unobserved value
Date modified: